[Iaude] MPEC V53: 2016 VT1 [a=1.05,e=0.48,i=5.6,H=24.0]

mpec at si.edu mpec at si.edu
Mon Nov 7 07:02:09 EST 2016


M.P.E.C. 2016-V53                                Issued 2016 Nov. 7, 11:57 UT
 
     The Minor Planet Electronic Circulars contain information on unusual
         minor planets and routine data on comets.  They are published
    on behalf of Division F of the International Astronomical Union by the
          Minor Planet Center, Smithsonian Astrophysical Observatory,
                          Cambridge, MA 02138, U.S.A.

             Prepared using the Tamkin Foundation Computer Network

                              MPC at CFA.HARVARD.EDU
            URL http://www.minorplanetcenter.net/    ISSN 1523-6714


                                   2016 VT1
 
Observations:
     K16V01T* C2016 11 05.33810 03 29 57.52 -09 45 01.0          21.5 VqEV053G96
     K16V01T  C2016 11 05.34469 03 29 56.22 -09 45 41.0          21.1 VqEV053G96
     K16V01T  C2016 11 05.35010 03 29 55.14 -09 46 14.2          21.8 VqEV053G96
     K16V01T  C2016 11 05.35441 03 29 54.27 -09 46 40.7          21.9 VqEV053G96
     K16V01T  C2016 11 05.38617 03 29 47.84 -09 49 54.8          21.2 VqEV053G96
     K16V01T  C2016 11 05.38692 03 29 47.71 -09 49 58.3          21.6 VqEV053G96
     K16V01T  C2016 11 05.38964 03 29 47.18 -09 50 16.2          21.5 VqEV053G96
     K16V01T  C2016 11 05.42929 03 29 39.14 -09 54 18.9          20.9 VqEV053I52
     K16V01T  C2016 11 05.43109 03 29 38.84 -09 54 29.5          22.0 VqEV053I52
     K16V01T  C2016 11 05.43290 03 29 38.42 -09 54 40.8          21.6 VqEV053I52
     K16V01T  C2016 11 05.43470 03 29 38.14 -09 54 51.3          21.6 VqEV053I52
     K16V01T  C2016 11 06.29318 03 26 55.89 -11 25 41.0          20.8 RoEV053926
     K16V01T  C2016 11 06.30094 03 26 54.19 -11 26 31.5          20.8 RoEV053926
     K16V01T  C2016 11 06.30869 03 26 52.47 -11 27 22.6          20.9 RoEV053926
     K16V01T  C2016 11 07.31938 03 23 18.54 -13 21 44.6          20.9 VqEV053G96
     K16V01T  C2016 11 07.32030 03 23 18.25 -13 21 50.4          20.7 VqEV053G96
     K16V01T  C2016 11 07.32360 03 23 17.48 -13 22 14.6          21.3 VqEV053G96
     K16V01T  C2016 11 07.32436 03 23 17.30 -13 22 20.2          21.3 VqEV053G96
 
Observer details:
926 Tenagra II Observatory.  Observers M. Schwartz, P. R. Holvorcem.  Measurer
    M. Schwartz.  0.81-m f/7 Ritchey-Chretien + CCD.
G96 Mt. Lemmon Survey.  Observers A. R. Gibbs, R. A. Kowalski.  Measurers
    E. J. Christensen, D. C. Fuls, A. R. Gibbs, A. D. Grauer, J. A. Johnson,
    R. A. Kowalski, S. M. Larson, G. J. Leonard, R. G. Matheny, R. L. Seaman,
    F. C. Shelly.  1.5-m reflector + 10K CCD.
I52 Steward Observatory, Mt. Lemmon Station.  Observer R. G. Matheny.
    Measurers E. J. Christensen, D. C. Fuls, A. R. Gibbs, A. D. Grauer,
    J. A. Johnson, R. A. Kowalski, S. M. Larson, G. J. Leonard, R. G. Matheny,
    R. L. Seaman, F. C. Shelly.  1.0-m reflector + CCD.
 
Orbital elements:
2016 VT1                                                 Earth MOID = 0.0806 AU
Epoch 2016 July 31.0 TT = JDT 2457600.5                 MPC
M 198.94323              (2000.0)            P               Q
n   0.91371954     Peri.  348.88205     -0.98649094     -0.16379008
a   1.0517861      Node   181.69913     +0.15681142     -0.93903076
e   0.4829153      Incl.    5.62379     +0.04739001     -0.30231446
P   1.08           H   24.0           G   0.15           U   9
Residuals in seconds of arc
161105 G96  0.5-  0.2-    161105 G96  0.5+  0.3-    161106 926  0.1+  0.2+
161105 G96  0.0   0.0     161105 I52  0.7-  0.3-    161106 926  0.0   0.1-
161105 G96  0.2+  0.1-    161105 I52  0.2+  0.1+    161107 G96  0.4+  0.1+
161105 G96  0.2+  0.2-    161105 I52  0.6-  0.1-    161107 G96  0.5-  0.7+
161105 G96  0.1-  0.1-    161105 I52  0.5+  0.4+    161107 G96  0.0   0.3-
161105 G96  0.2+  1.0+    161106 926  0.2-  0.1-    161107 G96  0.1+  0.5-

Ephemeris:
2016 VT1                 a,e,i = 1.05, 0.48, 6                   q = 0.5439
Date    TT    R. A. (2000) Decl.     Delta      r     Elong.  Phase     V
2016 10 08    03 52 50.0 +12 08 32   0.4029  1.3178   135.7    32.0    24.0
...
2016 10 23    03 51 49.6 +05 06 29   0.2620  1.2277   149.4    24.3    22.7
...
2016 10 31    03 42 30.5 -02 10 55   0.1972  1.1735   154.2    21.6    21.9
...
2016 11 06    03 27 53.3 -10 53 20   0.1555  1.1300   151.1    25.0    21.4
2016 11 07    03 24 28.6 -12 43 56   0.1493  1.1225   149.7    26.4    21.3
2016 11 08    03 20 41.9 -14 42 38   0.1434  1.1149   148.0    28.1    21.3
...
2016 11 14    02 46 59.8 -29 47 07   0.1141  1.0683   131.4    44.0    21.1
...
2016 11 22    00 54 23.8 -55 23 24   0.09951 1.0025    95.7    78.6    21.7
...
2016 12 07    18 43 59.8 -54 47 12   0.1528  0.8699    38.0   135.7    25.9

A. U. Tomatic                (C) Copyright 2016 MPC           M.P.E.C. 2016-V53




More information about the Iaude mailing list